Wind_Speed
12 12 13 13 13 13 13 14 15 16 16 16 17 18 18 19 19 20 20 19 20 21 22 23 24 24 25 25 25 26 27 28 28 28 28 29 29 29
13 13 13 12 12 13 14 15 15 16 17 18 18 19 19 20 20 21 21 21 22 23 24 24 25 25 25 25 26 27 28 28 29 30 30 30 30 31
13 14 13 13 13 14 15 15 15 16 17 19 19 19 20 21 21 21 23 23 23 23 24 25 26 26 27 27 28 29 29 29 30 31 31 31 31 32
14 14 14 14 14 15 15 15 16 17 18 19 20 20 20 20 21 22 23 24 24 24 24 25 25 26 26 27 27 28 28 29 30 31 32 32 33 33
15 15 15 15 16 16 16 16 17 17 18 19 19 20 20 21 22 22 23 24 24 24 24 25 25 26 27 27 28 28 29 30 31 32 32 33 34 34
16 15 15 16 16 16 17 17 17 18 18 19 19 20 21 22 23 23 23 24 25 25 25 26 27 28 28 29 30 30 31 32 32 33 34 34 34 34
17 17 17 17 17 17 17 18 19 19 19 20 21 21 22 23 23 24 25 25 26 26 27 27 27 28 28 29 30 31 32 33 33 33 34 34 35 36
18 18 18 18 18 19 19 19 19 20 20 21 22 22 23 24 24 25 25 26 26 27 27 27 28 29 30 31 32 32 33 33 33 34 34 35 35 36
18 18 19 19 19 20 20 20 20 21 21 22 22 23 23 23 24 25 26 26 27 27 28 28 29 30 31 31 32 33 34 34 34 34 34 35 36 36
19 20 20 20 20 21 21 21 22 22 22 23 24 24 24 24 25 26 27 27 27 28 29 30 31 31 32 32 33 34 34 34 34 35 35 35 36 36
21 21 20 21 21 22 22 22 23 23 24 25 25 26 26 26 27 28 28 28 29 29 30 31 32 32 33 33 33 33 33 34 34 35 36 36 37 37
22 21 21 22 22 22 22 23 23 24 25 25 25 26 26 27 28 29 29 30 30 31 32 32 32 33 33 33 33 34 35 35 35 36 37 38 38 39
22 21 22 22 22 23 23 24 24 25 25 25 26 27 27 28 29 30 30 31 31 31 32 32 33 33 34 34 34 35 35 36 36 37 38 38 38 38
22 22 23 23 23 23 24 25 25 26 26 27 27 28 29 29 30 30 30 31 31 32 32 32 33 33 34 34 34 35 35 36 37 37 37 37 37 37
23 23 23 24 24 24 25 26 26 27 27 28 29 29 30 30 30 30 31 31 31 31 32 32 32 33 34 34 34 35 36 36 37 37 37 37 37 37
23 24 24 25 25 26 27 27 27 28 29 30 30 30 31 31 31 31 31 31 31 31 32 32 33 33 33 34 35 36 36 36 36 36 37 36 37 37
25 25 25 26 26 27 28 28 28 29 30 30 30 31 31 32 32 31 31 31 31 31 32 32 33 33 34 35 35 35 35 35 36 36 36 35 36 36
25 25 26 27 27 28 28 28 29 29 30 31 31 31 31 32 32 31 31 31 31 32 32 32 33 33 33 34 34 35 35 35 35 35 35 35 35 35
26 27 27 27 28 28 28 28 29 29 30 31 31 31 31 31 31 31 31 31 31 31 32 32 32 33 34 34 34 34 34 34 35 35 35 35 34 34
27 27 27 28 28 28 28 29 30 30 31 31 31 31 31 31 30 30 30 31 31 31 32 33 33 33 33 33 34 34 34 34 34 34 35 35 35 35
28 28 28 28 28 29 29 30 31 31 31 31 31 30 30 30 30 30 30 30 31 32 32 32 32 33 32 33 33 33 33 33 33 34 35 35 35 36
27 27 28 28 29 30 30 31 31 31 31 31 30 30 30 30 30 31 31 31 31 32 32 32 32 32 32 33 33 33 33 33 34 34 34 34 35 34
27 27 28 29 29 30 30 30 31 31 31 30 30 30 30 30 30 30 30 30 31 32 32 32 33 33 33 33 33 33 34 34 34 34 34 34 35 34
Wind_Direction
312 310 306 300 295 293 292 291 289 289 291 290 290 289 288 288 288 288 288 288 287 286 286 287 287 286 286 285 284 284 284 283 282 282 282 280 279 279
313 312 311 306 303 299 296 295 293 293 293 292 293 291 289 287 288 289 288 290 290 289 289 288 289 288 287 287 286 286 284 284 283 282 282 283 281 280
313 313 313 309 306 304 302 298 296 295 295 293 292 293 292 292 290 288 289 289 289 290 291 290 288 287 288 289 288 286 286 283 283 283 284 285 284 282
315 312 312 309 309 306 303 300 298 298 297 297 295 293 295 293 291 292 291 290 290 290 290 289 289 290 290 290 290 290 288 286 285 285 285 285 284 282
319 316 312 310 309 308 306 305 303 300 299 299 300 300 300 298 296 295 294 293 292 293 294 293 293 293 292 293 294 294 294 291 289 287 287 286 286 285
318 316 313 312 312 311 310 309 307 305 304 303 305 304 301 302 301 299 297 296 296 297 296 296 296 295 295 294 294 294 294 294 292 290 290 289 288 287
313 313 313 311 310 311 312 309 307 305 303 303 303 302 301 301 300 299 298 297 297 296 295 294 295 296 297 297 296 295 296 294 292 291 291 290 289 289
310 311 312 312 311 310 311 310 308 307 307 306 305 303 302 302 302 301 299 299 298 297 296 297 297 297 298 297 297 297 297 294 293 292 292 291 291 290
308 309 310 311 312 311 311 309 308 307 306 306 306 304 303 303 303 303 302 301 300 298 298 297 297 297 298 298 298 298 297 296 295 294 294 293 293 292
307 308 309 311 312 311 310 309 308 307 307 307 306 305 303 302 302 302 302 302 300 299 298 298 297 297 298 298 298 298 298 297 297 296 296 295 295 294
308 308 309 310 312 312 310 310 310 310 308 308 307 307 306 305 305 305 304 303 302 300 300 300 300 299 299 299 299 299 299 298 298 297 297 296 295 295
309 309 308 310 311 311 311 310 309 309 309 308 307 307 306 306 306 306 305 303 303 302 302 302 301 300 300 300 300 300 299 298 298 298 297 297 296 295
307 308 308 309 310 311 311 310 309 309 308 308 308 307 306 306 306 305 304 304 303 302 302 302 301 300 301 301 300 300 300 300 299 299 298 297 297 296
306 305 305 306 308 309 309 309 309 309 308 308 307 307 307 307 307 306 306 305 305 304 304 303 303 303 303 302 302 302 301 301 301 301 300 299 298 297
306 305 305 305 306 307 307 308 310 310 309 309 308 308 308 307 307 307 306 306 306 306 305 304 304 304 304 303 303 303 303 303 303 303 302 301 300 299
305 306 306 306 307 308 308 308 309 309 309 309 308 308 309 309 308 308 308 307 307 307 306 306 305 305 304 305 304 304 303 303 304 304 303 302 301 300
306 307 307 308 308 308 309 310 310 310 310 310 310 310 310 310 309 309 308 308 308 308 308 308 307 306 305 305 305 304 304 303 303 304 304 303 301 300
307 307 308 308 309 311 312 312 312 311 311 311 310 311 310 310 309 309 309 309 309 310 310 310 310 309 309 308 307 306 305 304 304 304 304 303 302 301
306 307 308 309 310 311 312 313 313 313 313 313 313 313 313 313 312 312 312 311 312 312 312 312 311 310 309 309 309 308 307 306 305 305 304 304 303 302
307 307 308 309 310 311 312 313 314 314 314 314 315 315 315 314 313 313 312 312 313 313 312 312 313 312 311 311 311 310 309 308 307 306 306 305 304 303
306 306 307 308 310 311 312 313 313 313 314 314 314 315 315 315 314 313 312 312 313 314 314 313 314 314 313 312 312 313 312 310 309 309 308 307 306 305
306 306 307 307 309 310 311 312 313 314 315 316 316 316 316 316 315 315 314 313 314 315 315 315 315 315 315 314 314 314 313 312 311 311 310 310 309 308
306 307 308 308 309 310 312 313 314 315 315 315 316 316 316 316 315 316 316 316 316 316 316 316 315 315 315 315 315 315 314 313 313 312 312 312 312 311
Height
5880 5879 5877 5875 5873 5872 5871 5870 5868 5867 5865 5864 5862 5861 5859 5858 5856 5855 5853 5851 5850 5849 5847 5846 5844 5842 5841 5839 5838 5836 5835 5833 5832 5831 5829 5828 5827 5825
5878 5876 5874 5872 5870 5869 5867 5866 5864 5863 5861 5859 5857 5856 5854 5852 5850 5849 5847 5846 5844 5843 5841 5839 5838 5836 5834 5833 5831 5829 5827 5826 5824 5823 5822 5820 5819 5817
5875 5873 5871 5869 5867 5865 5864 5862 5860 5858 5856 5854 5852 5851 5849 5847 5845 5843 5841 5840 5838 5836 5835 5833 5831 5829 5827 5825 5824 5822 5820 5818 5816 5814 5813 5811 5810 5808
5872 5870 5868 5866 5864 5862 5860 5858 5856 5854 5852 5850 5848 5846 5843 5841 5839 5838 5836 5834 5832 5830 5828 5826 5824 5822 5820 5818 5816 5814 5812 5810 5808 5806 5804 5802 5801 5799
5869 5867 5865 5863 5860 5858 5856 5854 5852 5849 5847 5845 5843 5841 5838 5836 5834 5832 5830 5828 5826 5824 5822 5819 5817 5815 5813 5811 5809 5806 5804 5802 5800 5797 5795 5793 5791 5789
5866 5864 5861 5859 5857 5855 5852 5850 5848 5845 5843 5841 5838 5836 5834 5831 5829 5826 5824 5822 5819 5817 5815 5812 5810 5808 5806 5803 5801 5799 5796 5793 5791 5788 5786 5784 5782 5780
5863 5860 5858 5855 5853 5851 5848 5846 5843 5841 5839 5836 5834 5831 5829 5826 5824 5821 5818 5815 5813 5810 5808 5806 5803 5800 5798 5795 5793 5790 5787 5784 5781 5779 5776 5774 5772 5769
5859 5857 5854 5851 5849 5847 5844 5841 5839 5837 5834 5831 5829 5826 5824 5821 5818 5815 5812 5809 5806 5804 5801 5799 5796 5793 5790 5787 5784 5781 5778 5775 5771 5769 5766 5764 5761 5758
5855 5852 5850 5848 5845 5842 5840 5837 5834 5832 5829 5827 5824 5821 5818 5815 5812 5809 5806 5803 5800 5797 5794 5791 5788 5785 5782 5778 5775 5772 5769 5765 5762 5759 5756 5753 5751 5748
5851 5848 5846 5843 5841 5838 5835 5832 5830 5827 5824 5821 5818 5815 5812 5809 5806 5803 5800 5796 5793 5790 5787 5784 5780 5777 5773 5770 5766 5763 5759 5756 5752 5749 5746 5743 5740 5737
5846 5844 5842 5839 5836 5833 5831 5828 5825 5821 5818 5815 5812 5809 5806 5803 5800 5796 5793 5789 5786 5782 5779 5775 5772 5768 5764 5761 5757 5753 5750 5746 5743 5739 5736 5733 5729 5726
5842 5840 5837 5834 5832 5828 5825 5822 5819 5816 5813 5809 5806 5803 5800 5796 5793 5789 5786 5782 5778 5774 5770 5767 5763 5759 5756 5752 5748 5744 5741 5737 5733 5729 5726 5722 5718 5715
5837 5834 5832 5829 5826 5823 5820 5817 5814 5810 5807 5803 5800 5796 5793 5789 5785 5782 5778 5774 5770 5766 5762 5758 5754 5750 5746 5742 5739 5735 5731 5727 5723 5719 5716 5712 5708 5704
5832 5829 5827 5824 5821 5817 5814 5811 5808 5804 5801 5797 5793 5790 5786 5782 5778 5774 5770 5766 5762 5758 5754 5750 5746 5741 5737 5733 5729 5725 5721 5717 5713 5708 5704 5701 5697 5693
5827 5824 5821 5818 5815 5812 5808 5805 5802 5798 5794 5790 5786 5782 5778 5774 5770 5766 5762 5758 5753 5749 5745 5741 5737 5733 5728 5724 5720 5715 5711 5707 5702 5698 5694 5690 5686 5682
5821 5819 5815 5812 5809 5806 5802 5798 5795 5791 5787 5783 5779 5775 5770 5766 5762 5758 5753 5749 5745 5741 5736 5732 5728 5724 5719 5715 5710 5706 5701 5697 5692 5688 5684 5680 5675 5671
5816 5813 5810 5806 5803 5799 5795 5792 5788 5784 5780 5776 5771 5767 5762 5758 5754 5749 5745 5741 5737 5733 5728 5724 5719 5715 5710 5706 5701 5696 5692 5687 5683 5678 5674 5670 5665 5661
5810 5806 5803 5800 5796 5792 5789 5785 5781 5777 5772 5768 5764 5759 5755 5750 5745 5741 5737 5733 5728 5724 5720 5715 5711 5706 5702 5697 5692 5687 5682 5678 5673 5669 5664 5659 5655 5650
5803 5800 5797 5793 5790 5786 5782 5778 5774 5769 5765 5760 5756 5751 5747 5742 5737 5733 5729 5725 5720 5716 5711 5707 5702 5697 5693 5688 5683 5678 5673 5668 5663 5659 5654 5649 5645 5640
5797 5793 5790 5787 5783 5779 5775 5771 5767 5762 5758 5753 5748 5744 5739 5734 5730 5725 5721 5717 5712 5708 5703 5698 5694 5689 5684 5679 5674 5669 5664 5659 5654 5649 5645 5640 5635 5630
5790 5787 5783 5780 5776 5772 5768 5764 5759 5755 5750 5745 5741 5736 5731 5727 5722 5718 5714 5709 5705 5700 5695 5690 5685 5680 5675 5671 5666 5661 5655 5650 5645 5640 5635 5630 5625 5620
5783 5780 5776 5773 5769 5765 5761 5756 5752 5747 5743 5738 5733 5729 5724 5719 5715 5710 5706 5701 5697 5692 5687 5682 5677 5672 5667 5662 5657 5652 5647 5642 5637 5632 5626 5621 5616 5610
5776 5773 5769 5765 5761 5757 5753 5749 5744 5740 5735 5731 5726 5721 5717 5712 5708 5703 5698 5694 5689 5684 5679 5674 5669 5664 5659 5654 5649 5643 5638 5633 5628 5622 5618 5612 5607 5602